Location: Spring Creek
(38.2870°N, 100.2160°W)
Time: 02:43:19
(UTC+00:00)

IDEFIX/ARIANE 42P - Pass Details

Date: 08 May 2021
Orbit: 786 x 802 km, 98.4° (Epoch: 22 June)

Event Time Altitude Azimuth Distance (km) Brightness Sun altitude
Rises 10:30:47 0° 358° (N) 3,313 6.3 -12.1°
Reaches altitude 10° 10:33:32 10° 345° (NNW) 2,381 5.3 -11.7°
Maximum altitude 10:37:35 23° 294° (WNW) 1,649 3.9 -11.0°
Enters shadow 10:40:54 13° 249° (WSW) 2,168 4.2 -10.5°
